Station FILA2 - Flat Island Light, AK Image indicating link to RSS feed of recent meteorological observations for station FILA2


Conditions at FILA2 as of
(12:30 am AKDT)
0830 GMT on 05/22/2024:
     

Click on the graph icon in the table below to see a time series plot of the last five days of that observation.

5-day plot - Wind Direction Wind Direction (WDIR):ENE ( 70 deg true )
5-day plot - Wind Speed Wind Speed (WSPD): 12 kts
5-day plot - Wind Gust Wind Gust (GST): 22 kts
5-day plot - Atmospheric Pressure Atmospheric Pressure (PRES):29.79 in
5-day plot - Air Temperature Air Temperature (ATMP): 47.5 °F
5-day plot - Dew Point Dew Point (DEWP): 37.4 °F
5-day plot - Wind Chill Wind Chill (CHILL): 41.7 °F
5-day plot - Wind Speed at 10 Meters Wind Speed at 10 meters (WSPD10M): 12 kts
5-day plot - Wind Speed at 20 Meters Wind Speed at 20 meters (WSPD20M): 12 kts
5-day plot -  Wind Speed, Wind Gust and Atmospheric Pressure Combined plot of Wind Speed, Gust, and Air Pressure
Continuous Winds
TIME
(AKDT)
5-day plot - Wind Direction WDIR 5-day plot - Wind Speed WSPD
12:30 amENE ( 67 deg ) 12 kts
12:20 amNNE ( 30 deg ) 9 kts
12:10 amNE ( 51 deg ) 11 kts
12:00 amENE ( 76 deg ) 11 kts
11:50 pmENE ( 63 deg ) 11 kts
11:40 pmE ( 83 deg ) 11 kts
 
Peak gust during the measurement hour
TIME
(AKDT)
5-day plot - Gust Direction GDR 5-day plot - Gust Speed GST
12:28 amNE ( 50 deg ) 22 kts
Previous observations
TIME
(AKDT)
5-day plot - Wind Direction
WDIR
 
5-day plot - Wind Speed
WSPD
kts
5-day plot - Wind Gust
GST
kts
5-day plot - Wave Height
WVHT
ft
5-day plot - Dominant Wave Period
DPD
sec
5-day plot - Average Wave Period
APD
sec
5-day plot - Mean Wave Direction
MWD
 
5-day plot - Atmospheric Pressure
PRES
in
5-day plot - Pressure Tendency
PTDY
in
5-day plot - Air Temperature
ATMP
°F
5-day plot - Water Temperature
WTMP
°F
5-day plot - Dew Point
DEWP
°F
5-day plot - Salinity
SAL
psu
5-day plot - Visibility
VIS
nmi
5-day plot - Tide (above MLLW)
TIDE
ft
2024-05-22 12:00 am NE 10 15----29.80-0.01 46.8- 37.6---
2024-05-21 11:30 pm E 16 22----29.78- 47.5- 37.2---
2024-05-21 11:00 pm E 18 24----29.78-0.02 46.9- 37.6---
2024-05-21 10:30 pm NE 13 18----29.81- 46.2- 37.9---
2024-05-21 10:00 pm NE 7 10----29.82+0.02 46.6- 37.8---
2024-05-21 09:30 pmENE 7 10----29.82- 47.3- 37.8---
2024-05-21 09:00 pm E 19 22----29.81-0.01 48.0- 37.4---
2024-05-21 08:30 pm E 18 20----29.81- 48.7- 37.4---
2024-05-21 08:00 pm E 19 25----29.80-0.01 48.9- 37.8---
2024-05-21 07:30 pm E 13 17----29.81- 49.3- 38.1---
2024-05-21 07:00 pm E 17 22----29.80+0.00 49.1- 38.1---
2024-05-21 06:30 pm E 18 23----29.80- 48.9- 38.8---
2024-05-21 06:00 pm E 14 20----29.82+0.03 48.9- 38.7---
2024-05-21 05:30 pm E 14 19----29.83- 48.6- 38.7---
2024-05-21 05:00 pm E 16 24----29.82+0.01 48.9- 38.5---
2024-05-21 04:30 pmENE 11 16----29.82- 49.3- 38.8---
2024-05-21 04:00 pmESE 18 27----29.80- 48.4- 38.5---
2024-05-21 03:30 pm E 21 30----29.79- 47.5- 38.1---
2024-05-21 03:00 pm E 26 39----29.79+0.06 47.1- 38.1---
2024-05-21 02:30 pmESE 23 30----29.82- 46.2- 38.3---
2024-05-21 02:00 pm E 26 32----29.81+0.06 45.5- 38.5---
2024-05-21 01:30 pm E 23 31----29.81- 44.8- 38.8---
2024-05-21 01:00 pm E 26 35------ 46.2- 38.8---
2024-05-21 12:30 pm E 31 42----29.73- 45.0- 38.3---
2024-05-21 12:00 pm E 33 46----29.72-0.14 43.2- 39.6---
2024-05-21 11:30 am E 27 37----29.78- 45.0- 38.3---
2024-05-21 11:00 am E 37 44----29.75-0.14 43.0- 39.6---
2024-05-21 10:30 amESE 24 37----29.80- 44.2- 37.8---
2024-05-21 10:00 amESE 26 37----29.81-0.09 45.0- 36.7---
2024-05-21 09:30 amESE 24 34----29.82- 45.3- 37.0---
2024-05-21 09:00 am E 12 21----29.86-0.07 46.9- 36.9---
2024-05-21 08:30 am E 7 18----29.88- 46.4- 37.8---
2024-05-21 08:00 am NE 10 16----29.89-0.08 46.0- 37.4---
2024-05-21 07:30 am E 18 25----29.91- 44.1- 36.7---
2024-05-21 07:00 am E 19 25----29.90-0.07 43.2- 37.9---
2024-05-21 06:30 am E 22 29----29.92- 43.5- 37.0---
2024-05-21 06:00 am E 16 29----29.94-0.05 43.9- 36.7---
2024-05-21 05:30 am NE 6 17----29.95- 44.1- 36.5---
2024-05-21 05:00 am E 16 21----29.96-0.04 43.7- 36.5---
2024-05-21 04:30 amENE 13 16----29.97- 44.1- 35.4---
2024-05-21 04:00 am E 13 18----29.97-0.03 43.5- 35.1---
2024-05-21 03:30 am NE 10 13----29.99- 44.4- 34.2---
2024-05-21 03:00 am NE 6 11----29.99+0.00 45.3- 33.4---
2024-05-21 02:30 am S 13 19----30.00- 44.6- 33.1---
2024-05-21 02:00 am S 15 22----30.01+0.00 45.7- 30.6---
2024-05-21 01:30 am SE 11 17----30.00- 45.5- 33.1---
2024-05-21 01:00 amESE 4 7----30.01+0.02 45.5- 30.7---
2024-05-21 12:30 amESE 15 21----29.99- 45.0- 31.5---
2024-05-21 12:00 amSSE 11 17----29.99+0.01 44.8- 34.9---